Regional Weather Roundup
Issued by NWS Upton, NY

Current Version | Previous Version | Graphics & Text | Print | Product List | Glossary Off
Versions: 1 2 3 4 5 6 7 8 9 10 11 12 13 14 15 16 17 18 19 20 21 22 23 24 25 26 27 28 29 30 31 32 33 34 35 36 37 38 39 40 41 42 43 44 45 46 47 48 49 50

316
ASUS41 KOKX 022208
RWROKX

REGIONAL WEATHER ROUNDUP
NATIONAL WEATHER SERVICE NEW YORK NY
500 PM EST FRI DEC 02 2016

NOTE: "FAIR" INDICATES FEW OR NO CLOUDS BELOW 12,000 FEET WITH NO
SIGNIFICANT WEATHER AND/OR OBSTRUCTIONS TO VISIBILITY.

NYZ071-072-176-178-NJZ106-104-022300-
NEW YORK CITY METRO AREA

CITY           SKY/WX    TMP DP  RH WIND       PRES   REMARKS
Central Park   PTCLDY    49  26  41 W9G24     29.90R
Wall St Helipt CLOUDY    49  29  46 W12G20    29.89R
Bronx Bot Gard NOT AVBL
LaGuardia APRT MOCLDY    51  26  37 W22       29.88R
Kennedy INTL   MOCLDY    50  28  42 W16       29.89R
Breezy Point     N/A     48 N/A N/A W14G22      N/A
Newark/Liberty MOCLDY    48  27  44 W18G25    29.89R
Teterboro      PTCLDY    49  26  41 W12G21    29.87R
$$

NYZ177-179-078>081-022300-
LONG ISLAND NEW YORK

CITY           SKY/WX    TMP DP  RH WIND       PRES   REMARKS
Jones Beach      N/A     48 N/A N/A W15G23      N/A
Matinecock PT  NOT AVBL
Farmingdale    PTCLDY    49  28  44 W16G22    29.86S
MacArthur/ISP  MOCLDY    48  28  46 W9        29.85S
Shirley        MOCLDY    48  29  47 W9        29.86R
Westhampton    MOCLDY    45  30  55 W9        29.86R
Southampton    NOT AVBL
Bridgehampton  NOT AVBL
East Hampton   CLOUDY    47  30  53 W7        29.83S
Montauk          N/A     49  33  54 W13G21    29.83R
$$

NYZ052-065-067-022300-
HUDSON VALLEY

CITY           SKY/WX    TMP DP  RH WIND       PRES   REMARKS
White Plains   MOCLDY    47  27  45 W15G21    29.85R
Newburgh       MOCLDY    45  30  57 W17G24    29.85R
Montgomery     MOCLDY    46  29  51 W7        29.84R
Poughkeepsie   CLOUDY    46  29  51 W20G25    29.83S
Albany         MOCLDY    44  30  57 W9        29.80S
$$

NJZ001-105-106-008-010-013-015-019>022-104-022300-
NEW JERSEY

CITY           SKY/WX    TMP DP  RH WIND       PRES   REMARKS
Newark/Liberty MOCLDY    48  27  44 W18G25    29.89R
Teterboro      PTCLDY    49  26  41 W12G21    29.87R
Caldwell       PTCLDY    48  27  44 W14G22    29.89R
Somerville     CLOUDY    48  27  44 VRB7G20   29.90R
Linden         MOCLDY    48  27  43 W14G22    29.90R
Sussex         PTCLDY    45  28  51 SW8       29.87R
Andover          N/A     45  26  47 VRB5      29.88S
Trenton        MOCLDY    48  26  42 W12G22    29.93R
Millville      MOCLDY    46  30  53 W16G24    29.99R
Atlantic City  PTCLDY    47  28  47 W9        29.96R
Wrightstown    CLOUDY    47  28  47 W12       29.91R
Toms River     PTCLDY    45  30  55 W7        29.93S
Belmar         CLOUDY   N/A N/A N/A W17G24    29.92R
$$

PAZ047>061-062-071-022300-
EASTERN PENNSYLVANIA

CITY           SKY/WX    TMP DP  RH WIND       PRES   REMARKS
Philadelphia   PTCLDY    47  25  42 W23G29    29.98R
Allentown      CLOUDY    46  27  47 W15G24    29.93R
Scranton       CLOUDY    42  30  62 W16       29.89R
$$

CTZ002-004>006-009-010-012-RIZ004-006-007-MAZ004-011-015-022300-
SOUTHERN NEW ENGLAND
 IN CT

CITY           SKY/WX    TMP DP  RH WIND       PRES   REMARKS
Bradley INTL   MOCLDY    45  26  47 W10       29.80R
Hartford       CLOUDY    49  28  44 W9        29.81R
Danbury        MOCLDY    45  29  53 W10       29.84R
Wtrbury/Oxford MOCLDY    45  27  49 W7        29.83R
Bridgeport     CLOUDY    49  29  46 W9G20     29.84R
Meriden        PTCLDY    48  28  46 W8G20     29.83R
New Haven      MOCLDY    48  31  51 W3        29.83R
Chester        MOCLDY    46  28  49 W9        29.82R
Groton         CLOUDY    52  30  43 W10       29.81R
Wilimantic     CLOUDY    48  29  47 W3        29.80S

 IN RI

CITY           SKY/WX    TMP DP  RH WIND       PRES   REMARKS
Providence     MOCLDY    48  30  49 W9        29.79R
Block Island   CLOUDY    49  31  49 W13G21    29.81S
Westerly       CLOUDY    49  28  44 W3        29.81R
 IN MA

CITY           SKY/WX    TMP DP  RH WIND       PRES   REMARKS
Boston         PTCLDY    47  31  53 W10       29.75R
Worcester      MOCLDY    41  25  53 W9        29.74S
Westfield      PTCLDY    46  28  49 W13       29.79R
Provincetown   CLOUDY    48  34  58 W15       29.75R
Nantucket      MOCLDY    46  32  58 W12       29.78R
$$

ANZ330-335-338-340-345-350-353-355-022300-
COASTAL MARINE OBSERVATIONS


STATION/POSITION TIME  SKY/WX   TEMP    WIND        PRES    VSBY  WAVE
                                AIR SEA DIR/SP/G                  HT/PER
                 (UTC)          (F)     (DEG/KT/KT) (MB)    (MI)  (FT/S)
NY HARB ENTRANCE 2050            51 54  280/ 19/ 21 1011.7          3/ 4
20 S FIRE ISLAND 2050            50 55  280/ 19/ 25 1011.2          5/ 5
GREAT SOUTH BAY  2045            49 45                N/A
23 SSW MONTAUK P 2050            50 56  280/ 19/ 25 1010.3          5/ 6
15 E BARNEGAT LI 2100               54                N/A           4/ 4
HUDSON CANYON    2050            52 59              1012.0          6/ 7
KINGS POINT      2106            50 49              1011.0
EXECUTION ROCKS  2115            50     260/ 16/ 21   N/A
CENTRAL LI SOUND 2045            50 52  270/ 17/ 21   N/A           4/ 4
EASTERN LI SOUND NOT AVBL
ROBBINS REEF     2106            49     270/ 16/ 21 1011.8
$$


>>>>>>>>>>>>>>>>>>>>>>>>>>>> KEY <<<<<<<<<<<<<<<<<<<<<<<<<<<
>                                                          <
>     SKY/WX - Sky Condition/Present Weather               <
>     TMP    - Temperature in Fahrenheit                   <
>     DP     - Dew Point in Fahrenheit                     <
>     RH     - Relative Humidity in Percent                <
>     WIND   - Direction (from) and Speed in MPH           <
>     PRES   - Mean Sea Level Pressure (inches of Hg)      <
>     WCI    - Wind Chill Index                            <
>     VSB    - VISIBILITY IN MILES                         <
>     HX     - HEAT INDEX                                  <
>     TC     - TEMPERATURE IN CELSIUS                      <
>     VRB    - VARIABLE WIND DIRECTION                     <
>                                                          <
>>>>>>>>>>>>>>>>>>>>>>>>>>>> KEY <<<<<<<<<<<<<<<<<<<<<<<<<<<




USA.gov is the U.S. government's official web portal to all federal, state and local government web resources and services.